STARLINK-2185, 47767

Orbit data source: Space-Track

STARLINK-2185, 47767 is a payload satellite owned by SpaceX/Seattle (US) in LEO that was launched on Thu, 04 Mar 2021 UTC via an FALCON 9 launch vehicle from the Air Force Eastern Test Range (AFETR). Payload-class satellites include a variety of spacecraft equipped with specific instruments for various scientific and technological missions. These include communications satellites like Starlink; space stations such as the ISS; scientific satellites like the Hubble; Earth observation satellites from companies like Planet Labs, Umbra, and HawkEye 360; GPS; miniature CubeSats for education and research; and military/defense satellites.

Not visible in the next 10 days
Identifier
47767, 2021-017AX
Orbit
LEO
Country
Flag of USUS
Related business
Manufacturer
SpaceX/Seattle
Mission
Partially operational Commercial Communications
Bus & Motor
STARLINK, Unknown motor
Mass
260 kg wet, ~248 kg dry
Launch date (UTC)
2021-03-04 (5 years ago)
Launch vehicle
FALCON 9
Launch site
Air Force Eastern Test Range (AFETR)
Object type
Payload
Rocket body
Debris
Shape & HBR
Box + 1 Pan, 10.1 m
Radar Cross Section
13.562 m², Large (>1 m²)

Expand to show TLE details & history
Last TLE update: 4 hours ago

TLE from 4 hours ago
0 STARLINK-2185
1 47767U 21017AX  26236.58336806  .00216281  00000-0  85473-3 0  9990
2 47767  53.1461 112.0398 0003573 180.8422  25.1388 15.85676694  5896
Epoch: 2026-08-24T14:00Z
TLE epoch observation values (Epoch: 2026-08-24T14:00:03.000Z)
Latitude
-20.7219°
Longitude
125.54175°
Altitude
318.059 km
Speed
7.719 km/s
True Right ascension
20h 33m 40s
True Declination
-20° 36' 03"
Sunlit
Object was in full shadow at epoch
Visualization orbit readout
Latitude
Unknown
Longitude
Unknown
Altitude
Unknown
Speed
Unknown
Apparent Right ascension
Unknown
Apparent Declination
Unknown
Sunlit
N/A
Visualization observer readout
Local Sidereal Time
08:59:40
Azimuth
Unknown
Elevation
Unknown
Doppler factor
Unknown
Orbital elements
Apogee altitude
317.076 km
Perigee altitude
312.293 km
Semi-major axis
6,692.822 km
Eccentricity
0.00036
Inclination
53.1461°
RAAN
112.0398°
Arg. of periapsis
180.8422°
True anomaly
25.1562°
Mean anomaly
25.1388°
Eccentric anomaly
25.1475°
Mean motion
3.96396 °/min
Orbital period
90.82 mins
BSTAR
0.00085473
Loading maneuver chart data...
Computing Atmospheric mass density...

Documentation

Showing up to 5 results
|